Year,Month,Day,Hour,Minute,Value (Times are PST for temperature in C)
2018,08,21,00,00,17.80
2018,08,21,00,01,17.80
2018,08,21,00,02,17.80
2018,08,21,00,03,17.80
2018,08,21,00,04,17.80
2018,08,21,00,05,17.80
2018,08,21,00,06,17.80
2018,08,21,00,07,17.80
2018,08,21,00,08,17.80
2018,08,21,00,09,17.80
2018,08,21,00,10,17.80
2018,08,21,00,11,17.80
2018,08,21,00,12,17.70
2018,08,21,00,13,17.70
2018,08,21,00,14,17.70
2018,08,21,00,15,17.70
2018,08,21,00,16,17.60
2018,08,21,00,17,17.60
2018,08,21,00,18,17.60
2018,08,21,00,19,17.50
2018,08,21,00,20,17.50
2018,08,21,00,21,17.50
2018,08,21,00,22,17.50
2018,08,21,00,23,17.40
2018,08,21,00,24,17.40
2018,08,21,00,25,17.40
2018,08,21,00,26,17.40
2018,08,21,00,27,17.40
2018,08,21,00,28,17.40
2018,08,21,00,29,17.40
2018,08,21,00,30,17.40
2018,08,21,00,31,17.40
2018,08,21,00,32,17.40
2018,08,21,00,33,17.40
2018,08,21,00,34,17.40
2018,08,21,00,35,17.40
2018,08,21,00,36,17.30
2018,08,21,00,37,17.30
2018,08,21,00,38,17.30
2018,08,21,00,39,17.30
2018,08,21,00,40,17.30
2018,08,21,00,41,17.30
2018,08,21,00,42,17.30
2018,08,21,00,43,17.20
2018,08,21,00,44,17.20
2018,08,21,00,45,17.20
2018,08,21,00,46,17.20
2018,08,21,00,47,17.20
2018,08,21,00,48,17.10
2018,08,21,00,49,17.10
2018,08,21,00,50,17.10
2018,08,21,00,51,17.10
2018,08,21,00,52,17.10
2018,08,21,00,53,17.00
2018,08,21,00,54,17.00
2018,08,21,00,55,17.00
2018,08,21,00,56,16.90
2018,08,21,00,57,16.90
2018,08,21,00,58,16.90
2018,08,21,00,59,16.90
2018,08,21,01,00,16.80
2018,08,21,01,01,16.80
2018,08,21,01,02,16.80
2018,08,21,01,03,16.80
2018,08,21,01,04,16.80
2018,08,21,01,05,16.80
2018,08,21,01,06,16.70
2018,08,21,01,07,16.70
2018,08,21,01,08,16.70
2018,08,21,01,09,16.70
2018,08,21,01,10,16.70
2018,08,21,01,11,16.60
2018,08,21,01,12,16.60
2018,08,21,01,13,16.60
2018,08,21,01,14,16.60
2018,08,21,01,15,16.50
2018,08,21,01,16,16.50
2018,08,21,01,17,16.50
2018,08,21,01,18,16.50
2018,08,21,01,19,16.40
2018,08,21,01,20,16.40
2018,08,21,01,21,16.40
2018,08,21,01,22,16.40
2018,08,21,01,23,16.40
2018,08,21,01,24,16.40
2018,08,21,01,25,16.40
2018,08,21,01,26,16.40
2018,08,21,01,27,16.40
2018,08,21,01,28,16.40
2018,08,21,01,29,16.40
2018,08,21,01,30,16.30
2018,08,21,01,31,16.30
2018,08,21,01,32,16.30
2018,08,21,01,33,16.30
2018,08,21,01,34,16.30
2018,08,21,01,35,16.30
2018,08,21,01,36,16.30
2018,08,21,01,37,16.30
2018,08,21,01,38,16.30
2018,08,21,01,39,16.20
2018,08,21,01,40,16.20
2018,08,21,01,41,16.20
2018,08,21,01,42,16.20
2018,08,21,01,43,16.20
2018,08,21,01,44,16.20
2018,08,21,01,45,16.20
2018,08,21,01,46,16.20
2018,08,21,01,47,16.20
2018,08,21,01,48,16.20
2018,08,21,01,49,16.20
2018,08,21,01,50,16.20
2018,08,21,01,51,16.20
2018,08,21,01,52,16.20
2018,08,21,01,53,16.20
2018,08,21,01,54,16.20
2018,08,21,01,55,16.20
2018,08,21,01,56,16.10
2018,08,21,01,57,16.10
2018,08,21,01,58,16.10
2018,08,21,01,59,16.10
2018,08,21,02,00,16.10
2018,08,21,02,01,16.10
2018,08,21,02,02,16.10
2018,08,21,02,03,16.10
2018,08,21,02,04,16.10
2018,08,21,02,05,16.00
2018,08,21,02,06,16.00
2018,08,21,02,07,16.00
2018,08,21,02,08,16.00
2018,08,21,02,09,16.00
2018,08,21,02,10,16.00
2018,08,21,02,11,16.00
2018,08,21,02,12,16.00
2018,08,21,02,13,16.00
2018,08,21,02,14,16.00
2018,08,21,02,15,15.90
2018,08,21,02,16,15.90
2018,08,21,02,17,15.90
2018,08,21,02,18,15.90
2018,08,21,02,19,15.90
2018,08,21,02,20,15.90
2018,08,21,02,21,15.90
2018,08,21,02,22,15.90
2018,08,21,02,23,15.90
2018,08,21,02,24,15.90
2018,08,21,02,25,15.90
2018,08,21,02,26,15.90
2018,08,21,02,27,15.90
2018,08,21,02,28,15.90
2018,08,21,02,29,15.90
2018,08,21,02,30,15.90
2018,08,21,02,31,15.90
2018,08,21,02,32,15.90
2018,08,21,02,33,15.90
2018,08,21,02,34,15.90
2018,08,21,02,35,15.90
2018,08,21,02,36,15.90
2018,08,21,02,37,15.90
2018,08,21,02,38,15.90
2018,08,21,02,39,15.90
2018,08,21,02,40,15.90
2018,08,21,02,41,15.90
2018,08,21,02,42,15.90
2018,08,21,02,43,15.90
2018,08,21,02,44,15.90
2018,08,21,02,45,15.90
2018,08,21,02,46,15.90
2018,08,21,02,47,15.90
2018,08,21,02,48,15.90
2018,08,21,02,49,15.90
2018,08,21,02,50,15.80
2018,08,21,02,51,15.80
2018,08,21,02,52,15.80
2018,08,21,02,53,15.80
2018,08,21,02,54,15.80
2018,08,21,02,55,15.80
2018,08,21,02,56,15.80
2018,08,21,02,57,15.80
2018,08,21,02,58,15.80
2018,08,21,02,59,15.80
2018,08,21,03,00,15.80
2018,08,21,03,01,15.80
2018,08,21,03,02,15.80
2018,08,21,03,03,15.80
2018,08,21,03,04,15.80
2018,08,21,03,05,15.80
2018,08,21,03,06,15.80
2018,08,21,03,07,15.80
2018,08,21,03,08,15.80
2018,08,21,03,09,15.80
2018,08,21,03,10,15.70
2018,08,21,03,11,15.70
2018,08,21,03,12,15.70
2018,08,21,03,13,15.70
2018,08,21,03,14,15.70
2018,08,21,03,15,15.70
2018,08,21,03,16,15.60
2018,08,21,03,17,15.60
2018,08,21,03,18,15.60
2018,08,21,03,19,15.50
2018,08,21,03,20,15.50
2018,08,21,03,21,15.50
2018,08,21,03,22,15.50
2018,08,21,03,23,15.50
2018,08,21,03,24,15.40
2018,08,21,03,25,15.40
2018,08,21,03,26,15.40
2018,08,21,03,27,15.40
2018,08,21,03,28,15.40
2018,08,21,03,29,15.40
2018,08,21,03,30,15.40
2018,08,21,03,31,15.40
2018,08,21,03,32,15.40
2018,08,21,03,33,15.40
2018,08,21,03,34,15.40
2018,08,21,03,35,15.40
2018,08,21,03,36,15.40
2018,08,21,03,37,15.40
2018,08,21,03,38,15.40
2018,08,21,03,39,15.50
2018,08,21,03,40,15.50
2018,08,21,03,41,15.50
2018,08,21,03,42,15.50
2018,08,21,03,43,15.50
2018,08,21,03,44,15.50
2018,08,21,03,45,15.50
2018,08,21,03,46,15.40
2018,08,21,03,47,15.40
2018,08,21,03,48,15.40
2018,08,21,03,49,15.40
2018,08,21,03,50,15.30
2018,08,21,03,51,15.30
2018,08,21,03,52,15.30
2018,08,21,03,53,15.20
2018,08,21,03,54,15.20
2018,08,21,03,55,15.20
2018,08,21,03,56,15.20
2018,08,21,03,57,15.20
2018,08,21,03,58,15.10
2018,08,21,03,59,15.10
2018,08,21,04,00,15.10
2018,08,21,04,01,15.10
2018,08,21,04,02,15.00
2018,08,21,04,03,15.00
2018,08,21,04,04,15.00
2018,08,21,04,05,15.00
2018,08,21,04,06,15.00
2018,08,21,04,07,15.00
2018,08,21,04,08,15.00
2018,08,21,04,09,15.00
2018,08,21,04,10,15.00
2018,08,21,04,11,15.00
2018,08,21,04,12,15.00
2018,08,21,04,13,15.00
2018,08,21,04,14,15.00
2018,08,21,04,15,15.00
2018,08,21,04,16,15.00
2018,08,21,04,17,15.00
2018,08,21,04,18,15.00
2018,08,21,04,19,15.00
2018,08,21,04,20,15.00
2018,08,21,04,21,15.00
2018,08,21,04,22,15.00
2018,08,21,04,23,14.90
2018,08,21,04,24,14.90
2018,08,21,04,25,14.90
2018,08,21,04,26,14.80
2018,08,21,04,27,14.80
2018,08,21,04,28,14.80
2018,08,21,04,29,14.70
2018,08,21,04,30,14.70
2018,08,21,04,31,14.70
2018,08,21,04,32,14.70
2018,08,21,04,33,14.60
2018,08,21,04,34,14.60
2018,08,21,04,35,14.60
2018,08,21,04,36,14.60
2018,08,21,04,37,14.60
2018,08,21,04,38,14.60
2018,08,21,04,39,14.70
2018,08,21,04,40,14.70
2018,08,21,04,41,14.70
2018,08,21,04,42,14.70
2018,08,21,04,43,14.70
2018,08,21,04,44,14.70
2018,08,21,04,45,14.70
2018,08,21,04,46,14.70
2018,08,21,04,47,14.70
2018,08,21,04,48,14.70
2018,08,21,04,49,14.60
2018,08,21,04,50,14.60
2018,08,21,04,51,14.60
2018,08,21,04,52,14.50
2018,08,21,04,53,14.40
2018,08,21,04,54,14.40
2018,08,21,04,55,14.40
2018,08,21,04,56,14.30
2018,08,21,04,57,14.30
2018,08,21,04,58,14.30
2018,08,21,04,59,14.20
2018,08,21,05,00,14.20
2018,08,21,05,01,14.20
2018,08,21,05,02,14.20
2018,08,21,05,03,14.20
2018,08,21,05,04,14.20
2018,08,21,05,05,14.20
2018,08,21,05,06,14.20
2018,08,21,05,07,14.20
2018,08,21,05,08,14.20
2018,08,21,05,09,14.20
2018,08,21,05,10,14.20
2018,08,21,05,11,14.20
2018,08,21,05,12,14.20
2018,08,21,05,13,14.20
2018,08,21,05,14,14.20
2018,08,21,05,15,14.20
2018,08,21,05,16,14.10
2018,08,21,05,17,14.10
2018,08,21,05,18,14.00
2018,08,21,05,19,14.00
2018,08,21,05,20,14.00
2018,08,21,05,21,13.90
2018,08,21,05,22,13.90
2018,08,21,05,23,13.90
2018,08,21,05,24,13.90
2018,08,21,05,25,13.80
2018,08,21,05,26,13.80
2018,08,21,05,27,13.80
2018,08,21,05,28,13.80
2018,08,21,05,29,13.80
2018,08,21,05,30,13.80
2018,08,21,05,31,13.80
2018,08,21,05,32,13.80
2018,08,21,05,33,13.80
2018,08,21,05,34,13.80
2018,08,21,05,35,13.80
2018,08,21,05,36,13.80
2018,08,21,05,37,13.80
2018,08,21,05,38,13.80
2018,08,21,05,39,13.80
2018,08,21,05,40,13.80
2018,08,21,05,41,13.80
2018,08,21,05,42,13.80
2018,08,21,05,43,13.80
2018,08,21,05,44,13.80
2018,08,21,05,45,13.80
2018,08,21,05,46,13.80
2018,08,21,05,47,13.80
2018,08,21,05,48,13.80
2018,08,21,05,49,13.80
2018,08,21,05,50,13.80
2018,08,21,05,51,13.70
2018,08,21,05,52,13.70
2018,08,21,05,53,13.70
2018,08,21,05,54,13.70
2018,08,21,05,55,13.70
2018,08,21,05,56,13.70
2018,08,21,05,57,13.70
2018,08,21,05,58,13.70
2018,08,21,05,59,13.70
2018,08,21,06,00,13.60
2018,08,21,06,01,13.60
2018,08,21,06,02,13.60
2018,08,21,06,03,13.60
2018,08,21,06,04,13.60
2018,08,21,06,05,13.60
2018,08,21,06,06,13.60
2018,08,21,06,07,13.60
2018,08,21,06,08,13.60
2018,08,21,06,09,13.50
2018,08,21,06,10,13.50
2018,08,21,06,11,13.50
2018,08,21,06,12,13.50
2018,08,21,06,13,13.50
2018,08,21,06,14,13.50
2018,08,21,06,15,13.50
2018,08,21,06,16,13.50
2018,08,21,06,17,13.40
2018,08,21,06,18,13.40
2018,08,21,06,19,13.40
2018,08,21,06,20,13.40
2018,08,21,06,21,13.40
2018,08,21,06,22,13.40
2018,08,21,06,23,13.40
2018,08,21,06,24,13.30
2018,08,21,06,25,13.30
2018,08,21,06,26,13.30
2018,08,21,06,27,13.30
2018,08,21,06,28,13.30
2018,08,21,06,29,13.30
2018,08,21,06,30,13.30
2018,08,21,06,31,13.20
2018,08,21,06,32,13.20
2018,08,21,06,33,13.20
2018,08,21,06,34,13.20
2018,08,21,06,35,13.20
2018,08,21,06,36,13.20
2018,08,21,06,37,13.20
2018,08,21,06,38,13.20
2018,08,21,06,39,13.20
2018,08,21,06,40,13.10
2018,08,21,06,41,13.10
2018,08,21,06,42,13.10
2018,08,21,06,43,13.10
2018,08,21,06,44,13.10
2018,08,21,06,45,13.10
2018,08,21,06,46,13.10
2018,08,21,06,47,13.10
2018,08,21,06,48,13.10
2018,08,21,06,49,13.10
2018,08,21,06,50,13.10
2018,08,21,06,51,13.10
2018,08,21,06,52,13.10
2018,08,21,06,53,13.10
2018,08,21,06,54,13.10
2018,08,21,06,55,13.10
2018,08,21,06,56,13.10
2018,08,21,06,57,13.10
2018,08,21,06,58,13.20
2018,08,21,06,59,13.20
2018,08,21,07,00,13.20
2018,08,21,07,01,13.20
2018,08,21,07,02,13.20
2018,08,21,07,03,13.20
2018,08,21,07,04,13.20
2018,08,21,07,05,13.20
2018,08,21,07,06,13.20
2018,08,21,07,07,13.20
2018,08,21,07,08,13.30
2018,08,21,07,09,13.30
2018,08,21,07,10,13.30
2018,08,21,07,11,13.30
2018,08,21,07,12,13.30
2018,08,21,07,13,13.30
2018,08,21,07,14,13.30
2018,08,21,07,15,13.30
2018,08,21,07,16,13.30
2018,08,21,07,17,13.30
2018,08,21,07,18,13.30
2018,08,21,07,19,13.30
2018,08,21,07,20,13.30
2018,08,21,07,21,13.40
2018,08,21,07,22,13.40
2018,08,21,07,23,13.40
2018,08,21,07,24,13.40
2018,08,21,07,25,13.40
2018,08,21,07,26,13.40
2018,08,21,07,27,13.40
2018,08,21,07,28,13.40
2018,08,21,07,29,13.40
2018,08,21,07,30,13.50
2018,08,21,07,31,13.50
2018,08,21,07,32,13.50
2018,08,21,07,33,13.50
2018,08,21,07,34,13.50
2018,08,21,07,35,13.60
2018,08,21,07,36,13.60
2018,08,21,07,37,13.60
2018,08,21,07,38,13.60
2018,08,21,07,39,13.60
2018,08,21,07,40,13.70
2018,08,21,07,41,13.70
2018,08,21,07,42,13.70
2018,08,21,07,43,13.70
2018,08,21,07,44,13.70
2018,08,21,07,45,13.80
2018,08,21,07,46,13.80
2018,08,21,07,47,13.80
2018,08,21,07,48,13.80
2018,08,21,07,49,13.90
2018,08,21,07,50,13.90
2018,08,21,07,51,13.90
2018,08,21,07,52,14.00
2018,08,21,07,53,14.00
2018,08,21,07,54,14.00
2018,08,21,07,55,14.10
2018,08,21,07,56,14.10
2018,08,21,07,57,14.20
2018,08,21,07,58,14.20
2018,08,21,07,59,14.20
2018,08,21,08,00,14.30
2018,08,21,08,01,14.30
2018,08,21,08,02,14.30
2018,08,21,08,03,14.40
2018,08,21,08,04,14.40
2018,08,21,08,05,14.50
2018,08,21,08,06,14.50
2018,08,21,08,07,14.50
2018,08,21,08,08,14.60
2018,08,21,08,09,14.60
2018,08,21,08,10,14.70
2018,08,21,08,11,14.70
2018,08,21,08,12,14.80
2018,08,21,08,13,14.80
2018,08,21,08,14,14.80
2018,08,21,08,15,14.90
2018,08,21,08,16,15.00
2018,08,21,08,17,15.00
2018,08,21,08,18,15.00
2018,08,21,08,19,15.10
2018,08,21,08,20,15.20
2018,08,21,08,21,15.20
2018,08,21,08,22,15.30
2018,08,21,08,23,15.40
2018,08,21,08,24,15.50
2018,08,21,08,25,15.50
2018,08,21,08,26,15.60
2018,08,21,08,27,15.70
2018,08,21,08,28,15.70
2018,08,21,08,29,15.70
2018,08,21,08,30,15.80
2018,08,21,08,31,15.80
2018,08,21,08,32,15.90
2018,08,21,08,33,16.00
2018,08,21,08,34,16.00
2018,08,21,08,35,16.10
2018,08,21,08,36,16.10
2018,08,21,08,37,16.20
2018,08,21,08,38,16.20
2018,08,21,08,39,16.30
2018,08,21,08,40,16.30
2018,08,21,08,41,16.40
2018,08,21,08,42,16.50
2018,08,21,08,43,16.50
2018,08,21,08,44,16.60
2018,08,21,08,45,16.70
2018,08,21,08,46,16.80
2018,08,21,08,47,16.90
2018,08,21,08,48,17.00
2018,08,21,08,49,17.10
2018,08,21,08,50,17.20
2018,08,21,08,51,17.30
2018,08,21,08,52,17.40
2018,08,21,08,53,17.40
2018,08,21,08,54,17.50
2018,08,21,08,55,17.60
2018,08,21,08,56,17.60
2018,08,21,08,57,17.70
2018,08,21,08,58,17.80
2018,08,21,08,59,17.90
2018,08,21,09,00,17.90
2018,08,21,09,01,18.10
2018,08,21,09,02,18.20
2018,08,21,09,03,18.30
2018,08,21,09,04,18.40
2018,08,21,09,05,18.40
2018,08,21,09,06,18.50
2018,08,21,09,07,18.60
2018,08,21,09,08,18.70
2018,08,21,09,09,18.80
2018,08,21,09,10,18.90
2018,08,21,09,11,18.90
2018,08,21,09,12,19.00
2018,08,21,09,13,19.10
2018,08,21,09,14,19.20
2018,08,21,09,15,19.30
2018,08,21,09,16,19.30
2018,08,21,09,17,19.40
2018,08,21,09,18,19.50
2018,08,21,09,19,19.60
2018,08,21,09,20,19.70
2018,08,21,09,21,19.70
2018,08,21,09,22,19.80
2018,08,21,09,23,20.00
2018,08,21,09,24,20.10
2018,08,21,09,25,20.20
2018,08,21,09,26,20.30
2018,08,21,09,27,20.30
2018,08,21,09,28,20.30
2018,08,21,09,29,20.40
2018,08,21,09,30,20.50
2018,08,21,09,31,20.50
2018,08,21,09,32,20.60
2018,08,21,09,33,20.70
2018,08,21,09,34,20.70
2018,08,21,09,35,20.80
2018,08,21,09,36,20.90
2018,08,21,09,37,20.90
2018,08,21,09,38,21.00
2018,08,21,09,39,21.10
2018,08,21,09,40,21.20
2018,08,21,09,41,21.30
2018,08,21,09,42,21.40
2018,08,21,09,43,21.60
2018,08,21,09,44,21.70
2018,08,21,09,45,21.90
2018,08,21,09,46,22.00
2018,08,21,09,47,22.10
2018,08,21,09,48,22.20
2018,08,21,09,49,22.30
2018,08,21,09,50,22.50
2018,08,21,09,51,22.50
2018,08,21,09,52,22.60
2018,08,21,09,53,22.70
2018,08,21,09,54,22.80
2018,08,21,09,55,22.90
2018,08,21,09,56,22.90
2018,08,21,09,57,23.00
2018,08,21,09,58,23.10
2018,08,21,09,59,23.20
2018,08,21,10,00,23.30
2018,08,21,10,01,23.50
2018,08,21,10,02,23.60
2018,08,21,10,03,23.70
2018,08,21,10,04,23.80
2018,08,21,10,05,23.90
2018,08,21,10,06,24.00
2018,08,21,10,07,24.10
2018,08,21,10,08,24.10
2018,08,21,10,09,24.20
2018,08,21,10,10,24.40
2018,08,21,10,11,24.50
2018,08,21,10,12,24.60
2018,08,21,10,13,24.70
2018,08,21,10,14,24.80
2018,08,21,10,15,24.90
2018,08,21,10,16,25.00
2018,08,21,10,17,25.10
2018,08,21,10,18,25.20
2018,08,21,10,19,25.10
2018,08,21,10,20,25.10
2018,08,21,10,21,25.10
2018,08,21,10,22,25.10
2018,08,21,10,23,25.00
2018,08,21,10,24,25.00
2018,08,21,10,25,24.90
2018,08,21,10,26,24.80
2018,08,21,10,27,24.70
2018,08,21,10,28,24.60
2018,08,21,10,29,24.40
2018,08,21,10,30,24.30
2018,08,21,10,31,24.20
2018,08,21,10,32,24.00
2018,08,21,10,33,24.00
2018,08,21,10,34,23.90
2018,08,21,10,35,23.80
2018,08,21,10,36,23.80
2018,08,21,10,37,23.70
2018,08,21,10,38,23.70
2018,08,21,10,39,23.70
2018,08,21,10,40,23.70
2018,08,21,10,41,23.70
2018,08,21,10,42,23.70
2018,08,21,10,43,23.60
2018,08,21,10,44,23.60
2018,08,21,10,45,23.60
2018,08,21,10,46,23.60
2018,08,21,10,47,23.60
2018,08,21,10,48,23.60
2018,08,21,10,49,23.70
2018,08,21,10,50,23.70
2018,08,21,10,51,23.80
2018,08,21,10,52,23.80
2018,08,21,10,53,23.80
2018,08,21,10,54,23.80
2018,08,21,10,55,23.80
2018,08,21,10,56,23.80
2018,08,21,10,57,23.80
2018,08,21,10,58,23.70
2018,08,21,10,59,23.70
2018,08,21,11,00,23.70
2018,08,21,11,01,23.70
2018,08,21,11,02,23.70
2018,08,21,11,03,23.60
2018,08,21,11,04,23.60
2018,08,21,11,05,23.70
2018,08,21,11,06,23.70
2018,08,21,11,07,23.70
2018,08,21,11,08,23.80
2018,08,21,11,09,23.90
2018,08,21,11,10,23.90
2018,08,21,11,11,24.00
2018,08,21,11,12,24.10
2018,08,21,11,13,24.20
2018,08,21,11,14,24.30
2018,08,21,11,15,24.40
2018,08,21,11,16,24.50
2018,08,21,11,17,24.60
2018,08,21,11,18,24.70
2018,08,21,11,19,24.80
2018,08,21,11,20,24.90
2018,08,21,11,21,25.00
2018,08,21,11,22,25.00
2018,08,21,11,23,25.00
2018,08,21,11,24,25.00
2018,08,21,11,25,25.00
2018,08,21,11,26,25.00
2018,08,21,11,27,24.90
2018,08,21,11,28,24.90
2018,08,21,11,29,24.80
2018,08,21,11,30,24.80
2018,08,21,11,31,24.90
2018,08,21,11,32,24.90
2018,08,21,11,33,25.00
2018,08,21,11,34,25.10
2018,08,21,11,35,25.10
2018,08,21,11,36,25.10
2018,08,21,11,37,25.10
2018,08,21,11,38,25.10
2018,08,21,11,39,25.10
2018,08,21,11,40,25.10
2018,08,21,11,41,25.10
2018,08,21,11,42,25.20
2018,08,21,11,43,25.20
2018,08,21,11,44,25.20
2018,08,21,11,45,25.30
2018,08,21,11,46,25.30
2018,08,21,11,47,25.30
2018,08,21,11,48,25.40
2018,08,21,11,49,25.40
2018,08,21,11,50,25.40
2018,08,21,11,51,25.50
2018,08,21,11,52,25.60
2018,08,21,11,53,25.60
2018,08,21,11,54,25.70
2018,08,21,11,55,25.70
2018,08,21,11,56,25.80
2018,08,21,11,57,25.90
2018,08,21,11,58,25.90
2018,08,21,11,59,26.00
2018,08,21,12,00,26.00
2018,08,21,12,01,26.10
2018,08,21,12,02,26.10
2018,08,21,12,03,26.10
2018,08,21,12,04,26.20
2018,08,21,12,05,26.20
2018,08,21,12,06,26.20
2018,08,21,12,07,26.20
2018,08,21,12,08,26.20
2018,08,21,12,09,26.20
2018,08,21,12,10,26.20
2018,08,21,12,11,26.20
2018,08,21,12,12,26.20
2018,08,21,12,13,26.30
2018,08,21,12,14,26.40
2018,08,21,12,15,26.50
2018,08,21,12,16,26.60
2018,08,21,12,17,26.70
2018,08,21,12,18,26.80
2018,08,21,12,19,26.90
2018,08,21,12,20,27.00
2018,08,21,12,21,27.00
2018,08,21,12,22,27.00
2018,08,21,12,23,27.00
2018,08,21,12,24,26.90
2018,08,21,12,25,26.90
2018,08,21,12,26,26.90
2018,08,21,12,27,26.90
2018,08,21,12,28,26.90
2018,08,21,12,29,26.90
2018,08,21,12,30,26.90
2018,08,21,12,31,26.90
2018,08,21,12,32,27.00
2018,08,21,12,33,27.00
2018,08,21,12,34,27.10
2018,08,21,12,35,27.20
2018,08,21,12,36,27.20
2018,08,21,12,37,27.30
2018,08,21,12,38,27.30
2018,08,21,12,39,27.30
2018,08,21,12,40,27.30
2018,08,21,12,41,27.40
2018,08,21,12,42,27.40
2018,08,21,12,43,27.40
2018,08,21,12,44,27.40
2018,08,21,12,45,27.40
2018,08,21,12,46,27.40
2018,08,21,12,47,27.50
2018,08,21,12,48,27.50
2018,08,21,12,49,27.50
2018,08,21,12,50,27.60
2018,08,21,12,51,27.50
2018,08,21,12,52,27.50
2018,08,21,12,53,27.50
2018,08,21,12,54,27.50
2018,08,21,12,55,27.50
2018,08,21,12,56,27.50
2018,08,21,12,57,27.60
2018,08,21,12,58,27.60
2018,08,21,12,59,27.70
2018,08,21,13,00,27.70
2018,08,21,13,01,27.80
2018,08,21,13,02,27.90
2018,08,21,13,03,27.90
2018,08,21,13,04,28.00
2018,08,21,13,05,28.00
2018,08,21,13,06,28.00
2018,08,21,13,07,28.00
2018,08,21,13,08,27.90
2018,08,21,13,09,28.00
2018,08,21,13,10,27.90
2018,08,21,13,11,27.80
2018,08,21,13,12,27.70
2018,08,21,13,13,27.60
2018,08,21,13,14,27.50
2018,08,21,13,15,27.30
2018,08,21,13,16,27.20
2018,08,21,13,17,27.20
2018,08,21,13,18,27.20
2018,08,21,13,19,27.30
2018,08,21,13,20,27.30
2018,08,21,13,21,27.40
2018,08,21,13,22,27.50
2018,08,21,13,23,27.60
2018,08,21,13,24,27.60
2018,08,21,13,25,27.70
2018,08,21,13,26,27.80
2018,08,21,13,27,27.80
2018,08,21,13,28,27.90
2018,08,21,13,29,28.00
2018,08,21,13,30,28.10
2018,08,21,13,31,28.20
2018,08,21,13,32,28.30
2018,08,21,13,33,28.40
2018,08,21,13,34,28.40
2018,08,21,13,35,28.40
2018,08,21,13,36,28.40
2018,08,21,13,37,28.40
2018,08,21,13,38,28.40
2018,08,21,13,39,28.40
2018,08,21,13,40,28.40
2018,08,21,13,41,28.50
2018,08,21,13,42,28.50
2018,08,21,13,43,28.50
2018,08,21,13,44,28.50
2018,08,21,13,45,28.40
2018,08,21,13,46,28.40
2018,08,21,13,47,28.40
2018,08,21,13,48,28.40
2018,08,21,13,49,28.50
2018,08,21,13,50,28.50
2018,08,21,13,51,28.60
2018,08,21,13,52,28.60
2018,08,21,13,53,28.60
2018,08,21,13,54,28.60
2018,08,21,13,55,28.60
2018,08,21,13,56,28.60
2018,08,21,13,57,28.60
2018,08,21,13,58,28.70
2018,08,21,13,59,28.70
2018,08,21,14,00,28.60
2018,08,21,14,01,28.60
2018,08,21,14,02,28.60
2018,08,21,14,03,28.60
2018,08,21,14,04,28.70
2018,08,21,14,05,28.80
2018,08,21,14,06,28.90
2018,08,21,14,07,28.90
2018,08,21,14,08,29.00
2018,08,21,14,09,29.00
2018,08,21,14,10,29.10
2018,08,21,14,11,29.10
2018,08,21,14,12,29.10
2018,08,21,14,13,29.20
2018,08,21,14,14,29.20
2018,08,21,14,15,29.30
2018,08,21,14,16,29.30
2018,08,21,14,17,29.30
2018,08,21,14,18,29.20
2018,08,21,14,19,29.20
2018,08,21,14,20,29.10
2018,08,21,14,21,29.10
2018,08,21,14,22,29.10
2018,08,21,14,23,29.10
2018,08,21,14,24,29.10
2018,08,21,14,25,29.10
2018,08,21,14,26,29.20
2018,08,21,14,27,29.30
2018,08,21,14,28,29.30
2018,08,21,14,29,29.40
2018,08,21,14,30,29.50
2018,08,21,14,31,29.60
2018,08,21,14,32,29.60
2018,08,21,14,33,29.50
2018,08,21,14,34,29.60
2018,08,21,14,35,29.60
2018,08,21,14,36,29.60
2018,08,21,14,37,29.60
2018,08,21,14,38,29.70
2018,08,21,14,39,29.70
2018,08,21,14,40,29.80
2018,08,21,14,41,29.80
2018,08,21,14,42,29.90
2018,08,21,14,43,29.90
2018,08,21,14,44,29.90
2018,08,21,14,45,29.90
2018,08,21,14,46,29.80
2018,08,21,14,47,29.70
2018,08,21,14,48,29.60
2018,08,21,14,49,29.60
2018,08,21,14,50,29.60
2018,08,21,14,51,29.70
2018,08,21,14,52,29.80
2018,08,21,14,53,29.90
2018,08,21,14,54,29.90
2018,08,21,14,55,30.00
2018,08,21,14,56,30.00
2018,08,21,14,57,30.00
2018,08,21,14,58,30.10
2018,08,21,14,59,30.10
2018,08,21,15,00,30.10
2018,08,21,15,01,30.10
2018,08,21,15,02,30.10
2018,08,21,15,03,30.10
2018,08,21,15,04,30.20
2018,08,21,15,05,30.20
2018,08,21,15,06,30.20
2018,08,21,15,07,30.20
2018,08,21,15,08,30.20
2018,08,21,15,09,30.20
2018,08,21,15,10,30.20
2018,08,21,15,11,30.20
2018,08,21,15,12,30.20
2018,08,21,15,13,30.20
2018,08,21,15,14,30.10
2018,08,21,15,15,30.00
2018,08,21,15,16,29.90
2018,08,21,15,17,29.90
2018,08,21,15,18,29.90
2018,08,21,15,19,29.80
2018,08,21,15,20,29.80
2018,08,21,15,21,29.80
2018,08,21,15,22,29.80
2018,08,21,15,23,29.80
2018,08,21,15,24,29.70
2018,08,21,15,25,29.70
2018,08,21,15,26,29.70
2018,08,21,15,27,29.70
2018,08,21,15,28,29.80
2018,08,21,15,29,29.80
2018,08,21,15,30,29.90
2018,08,21,15,31,29.90
2018,08,21,15,32,29.90
2018,08,21,15,33,30.00
2018,08,21,15,34,30.00
2018,08,21,15,35,29.90
2018,08,21,15,36,29.90
2018,08,21,15,37,29.80
2018,08,21,15,38,29.80
2018,08,21,15,39,29.90
2018,08,21,15,40,29.90
2018,08,21,15,41,29.90
2018,08,21,15,42,29.90
2018,08,21,15,43,29.90
2018,08,21,15,44,29.90
2018,08,21,15,45,29.90
2018,08,21,15,46,30.00
2018,08,21,15,47,30.00
2018,08,21,15,48,30.10
2018,08,21,15,49,30.10
2018,08,21,15,50,30.20
2018,08,21,15,51,30.20
2018,08,21,15,52,30.20
2018,08,21,15,53,30.30
2018,08,21,15,54,30.30
2018,08,21,15,55,30.30
2018,08,21,15,56,30.30
2018,08,21,15,57,30.30
2018,08,21,15,58,30.40
2018,08,21,15,59,30.40
2018,08,21,16,00,30.40
2018,08,21,16,01,30.40
2018,08,21,16,02,30.50
2018,08,21,16,03,30.50
2018,08,21,16,04,30.60
2018,08,21,16,05,30.60
2018,08,21,16,06,30.60
2018,08,21,16,07,30.60
2018,08,21,16,08,30.60
2018,08,21,16,09,30.70
2018,08,21,16,10,30.70
2018,08,21,16,11,30.70
2018,08,21,16,12,30.70
2018,08,21,16,13,30.70
2018,08,21,16,14,30.70
2018,08,21,16,15,30.70
2018,08,21,16,16,30.60
2018,08,21,16,17,30.60
2018,08,21,16,18,30.60
2018,08,21,16,19,30.60
2018,08,21,16,20,30.70
2018,08,21,16,21,30.70
2018,08,21,16,22,30.70
2018,08,21,16,23,30.80
2018,08,21,16,24,30.80
2018,08,21,16,25,30.80
2018,08,21,16,26,30.80
2018,08,21,16,27,30.80
2018,08,21,16,28,30.80
2018,08,21,16,29,30.80
2018,08,21,16,30,30.70
2018,08,21,16,31,30.60
2018,08,21,16,32,30.60
2018,08,21,16,33,30.50
2018,08,21,16,34,30.40
2018,08,21,16,35,30.40
2018,08,21,16,36,30.30
2018,08,21,16,37,30.30
2018,08,21,16,38,30.30
2018,08,21,16,39,30.30
2018,08,21,16,40,30.30
2018,08,21,16,41,30.40
2018,08,21,16,42,30.40
2018,08,21,16,43,30.40
2018,08,21,16,44,30.50
2018,08,21,16,45,30.50
2018,08,21,16,46,30.50
2018,08,21,16,47,30.60
2018,08,21,16,48,30.60
2018,08,21,16,49,30.60
2018,08,21,16,50,30.60
2018,08,21,16,51,30.60
2018,08,21,16,52,30.60
2018,08,21,16,53,30.60
2018,08,21,16,54,30.50
2018,08,21,16,55,30.50
2018,08,21,16,56,30.40
2018,08,21,16,57,30.40
2018,08,21,16,58,30.40
2018,08,21,16,59,30.40
2018,08,21,17,00,30.40
2018,08,21,17,01,30.40
2018,08,21,17,02,30.30
2018,08,21,17,03,30.30
2018,08,21,17,04,30.30
2018,08,21,17,05,30.30
2018,08,21,17,06,30.30
2018,08,21,17,07,30.30
2018,08,21,17,08,30.30
2018,08,21,17,09,30.30
2018,08,21,17,10,30.30
2018,08,21,17,11,30.40
2018,08,21,17,12,30.40
2018,08,21,17,13,30.40
2018,08,21,17,14,30.40
2018,08,21,17,15,30.40
2018,08,21,17,16,30.50
2018,08,21,17,17,30.50
2018,08,21,17,18,30.50
2018,08,21,17,19,30.40